SL-8 DEB, 1634

Orbit data source: Space-Track

SL-8 DEB, 1634 is space debris in LEO originally from a launch on Mon, 15 Mar 1965 UTC launched from the Tyuratam Missile And Space Complex (TTMTR). Debris objects in space refer to the collection of defunct objects orbiting the Earth. Examples of debris include non-operational satellites, rocket bodies, and fragments generated from explosions, collisions, or faulty payload assembly.

Loading next visibility...
Identifier
1634, 1965-020ED
Orbit
LEO
Country
Flag of CISCIS
Related business
Manufacturer
Unknown
Mission
Spacecraft
Bus & Motor
Unknown
Mass
Unknown
Launch date (UTC)
1965-03-15 (61 years ago)
Launch vehicle
Unknown
Launch site
Tyuratam Missile And Space Complex (TTMTR)
Object type
Payload
Rocket body
Debris
Shape & HBR
Unknown shape, 0.1 m
Radar Cross Section
Small (<0.1 m²)

Expand to show TLE details & history
Last TLE update: 1 day ago

TLE from 1 day ago
0 SL-8 DEB
1 01634U 65020ED  25348.32108090  .00000035  00000-0  23005-3 0  9993
2 01634  56.1531 207.1230 0852792 191.1579 166.9299 12.48484070739399
Epoch: 2025-12-14T07:42Z
TLE epoch observation values (Epoch: 2025-12-14T07:42:21.389Z)
Latitude
0.00002°
Longitude
8.29822°
Altitude
2,126.515 km
Speed
6.556 km/s
True Right ascension
13h 48m 29s
True Declination
0° 00' 00"
Sunlit
Object was in daylight at epoch
Visualization orbit readout
Latitude
Unknown
Longitude
Unknown
Altitude
Unknown
Speed
Unknown
Apparent Right ascension
Unknown
Apparent Declination
Unknown
Sunlit
N/A
Visualization observer readout
Local Sidereal Time
15:50:33
Azimuth
Unknown
Elevation
Unknown
Doppler factor
Unknown
Orbital elements
Apogee altitude
2,139.989 km
Perigee altitude
801.312 km
Semi-major axis
7,848.787 km
Eccentricity
0.08528
Inclination
56.1531°
RAAN
207.123°
Arg. of periapsis
191.1579°
True anomaly
168.93088°
Mean anomaly
166.9299°
Eccentric anomaly
167.94996°
Mean motion
3.12133 °/min
Orbital period
115.34 mins
BSTAR
0.00023005
Loading maneuver chart data...
Computing Atmospheric mass density...

Documentation

Showing up to 5 results
|